Year,Month,Day,Hour,Minute,Value (Times are PST for temperature in C)
2023,05,13,00,00,18.30
2023,05,13,00,01,18.20
2023,05,13,00,02,18.20
2023,05,13,00,03,18.20
2023,05,13,00,04,18.20
2023,05,13,00,05,18.20
2023,05,13,00,06,18.20
2023,05,13,00,07,18.20
2023,05,13,00,08,18.20
2023,05,13,00,09,18.20
2023,05,13,00,10,18.20
2023,05,13,00,11,18.10
2023,05,13,00,12,18.10
2023,05,13,00,13,18.10
2023,05,13,00,14,18.10
2023,05,13,00,15,18.10
2023,05,13,00,16,18.10
2023,05,13,00,17,18.10
2023,05,13,00,18,18.10
2023,05,13,00,19,18.10
2023,05,13,00,20,18.10
2023,05,13,00,21,18.10
2023,05,13,00,22,18.00
2023,05,13,00,23,18.00
2023,05,13,00,24,18.00
2023,05,13,00,25,18.00
2023,05,13,00,26,18.00
2023,05,13,00,27,17.90
2023,05,13,00,28,17.90
2023,05,13,00,29,17.90
2023,05,13,00,30,17.90
2023,05,13,00,31,17.90
2023,05,13,00,32,17.90
2023,05,13,00,33,17.90
2023,05,13,00,34,17.90
2023,05,13,00,35,17.90
2023,05,13,00,36,17.90
2023,05,13,00,37,17.80
2023,05,13,00,38,17.80
2023,05,13,00,39,17.80
2023,05,13,00,40,17.80
2023,05,13,00,41,17.80
2023,05,13,00,42,17.80
2023,05,13,00,43,17.80
2023,05,13,00,44,17.70
2023,05,13,00,45,17.70
2023,05,13,00,46,17.70
2023,05,13,00,47,17.70
2023,05,13,00,48,17.70
2023,05,13,00,49,17.70
2023,05,13,00,50,17.70
2023,05,13,00,51,17.70
2023,05,13,00,52,17.60
2023,05,13,00,53,17.60
2023,05,13,00,54,17.60
2023,05,13,00,55,17.60
2023,05,13,00,56,17.60
2023,05,13,00,57,17.60
2023,05,13,00,58,17.60
2023,05,13,00,59,17.50
2023,05,13,01,00,17.50
2023,05,13,01,01,17.50
2023,05,13,01,02,17.50
2023,05,13,01,03,17.50
2023,05,13,01,04,17.40
2023,05,13,01,05,17.40
2023,05,13,01,06,17.40
2023,05,13,01,07,17.40
2023,05,13,01,08,17.40
2023,05,13,01,09,17.40
2023,05,13,01,10,17.40
2023,05,13,01,11,17.30
2023,05,13,01,12,17.30
2023,05,13,01,13,17.30
2023,05,13,01,14,17.30
2023,05,13,01,15,17.30
2023,05,13,01,16,17.30
2023,05,13,01,17,17.30
2023,05,13,01,18,17.30
2023,05,13,01,19,17.30
2023,05,13,01,20,17.30
2023,05,13,01,21,17.20
2023,05,13,01,22,17.20
2023,05,13,01,23,17.20
2023,05,13,01,24,17.20
2023,05,13,01,25,17.10
2023,05,13,01,26,17.10
2023,05,13,01,27,17.10
2023,05,13,01,28,17.10
2023,05,13,01,29,17.00
2023,05,13,01,30,16.90
2023,05,13,01,31,16.90
2023,05,13,01,32,16.80
2023,05,13,01,33,16.80
2023,05,13,01,34,16.70
2023,05,13,01,35,16.70
2023,05,13,01,36,16.60
2023,05,13,01,37,16.50
2023,05,13,01,38,16.40
2023,05,13,01,39,16.30
2023,05,13,01,40,16.20
2023,05,13,01,41,16.10
2023,05,13,01,42,16.00
2023,05,13,01,43,15.90
2023,05,13,01,44,15.80
2023,05,13,01,45,15.80
2023,05,13,01,46,15.70
2023,05,13,01,47,15.60
2023,05,13,01,48,15.50
2023,05,13,01,49,15.50
2023,05,13,01,50,15.40
2023,05,13,01,51,15.40
2023,05,13,01,52,15.30
2023,05,13,01,53,15.30
2023,05,13,01,54,15.30
2023,05,13,01,55,15.20
2023,05,13,01,56,15.20
2023,05,13,01,57,15.20
2023,05,13,01,58,15.20
2023,05,13,01,59,15.10
2023,05,13,02,00,15.10
2023,05,13,02,01,15.10
2023,05,13,02,02,15.10
2023,05,13,02,03,15.00
2023,05,13,02,04,15.00
2023,05,13,02,05,15.00
2023,05,13,02,06,15.00
2023,05,13,02,07,14.90
2023,05,13,02,08,14.90
2023,05,13,02,09,14.90
2023,05,13,02,10,14.90
2023,05,13,02,11,14.90
2023,05,13,02,12,14.90
2023,05,13,02,13,14.90
2023,05,13,02,14,14.90
2023,05,13,02,15,14.90
2023,05,13,02,16,14.90
2023,05,13,02,17,14.90
2023,05,13,02,18,14.90
2023,05,13,02,19,14.90
2023,05,13,02,20,14.90
2023,05,13,02,21,14.90
2023,05,13,02,22,14.90
2023,05,13,02,23,14.90
2023,05,13,02,24,14.90
2023,05,13,02,25,14.90
2023,05,13,02,26,14.90
2023,05,13,02,27,14.90
2023,05,13,02,28,14.90
2023,05,13,02,29,14.90
2023,05,13,02,30,14.90
2023,05,13,02,31,14.90
2023,05,13,02,32,14.80
2023,05,13,02,33,14.80
2023,05,13,02,34,14.80
2023,05,13,02,35,14.80
2023,05,13,02,36,14.80
2023,05,13,02,37,14.80
2023,05,13,02,38,14.80
2023,05,13,02,39,14.70
2023,05,13,02,40,14.70
2023,05,13,02,41,14.70
2023,05,13,02,42,14.70
2023,05,13,02,43,14.70
2023,05,13,02,44,14.70
2023,05,13,02,45,14.70
2023,05,13,02,46,14.70
2023,05,13,02,47,14.80
2023,05,13,02,48,14.80
2023,05,13,02,49,14.80
2023,05,13,02,50,14.80
2023,05,13,02,51,14.90
2023,05,13,02,52,14.90
2023,05,13,02,53,15.00
2023,05,13,02,54,15.00
2023,05,13,02,55,15.10
2023,05,13,02,56,15.10
2023,05,13,02,57,15.10
2023,05,13,02,58,15.20
2023,05,13,02,59,15.20
2023,05,13,03,00,15.30
2023,05,13,03,01,15.30
2023,05,13,03,02,15.30
2023,05,13,03,03,15.40
2023,05,13,03,04,15.40
2023,05,13,03,05,15.40
2023,05,13,03,06,15.40
2023,05,13,03,07,15.40
2023,05,13,03,08,15.50
2023,05,13,03,09,15.50
2023,05,13,03,10,15.50
2023,05,13,03,11,15.60
2023,05,13,03,12,15.60
2023,05,13,03,13,15.60
2023,05,13,03,14,15.70
2023,05,13,03,15,15.70
2023,05,13,03,16,15.70
2023,05,13,03,17,15.80
2023,05,13,03,18,15.80
2023,05,13,03,19,15.80
2023,05,13,03,20,15.80
2023,05,13,03,21,15.90
2023,05,13,03,22,15.90
2023,05,13,03,23,15.90
2023,05,13,03,24,15.90
2023,05,13,03,25,15.90
2023,05,13,03,26,16.00
2023,05,13,03,27,16.00
2023,05,13,03,28,16.00
2023,05,13,03,29,16.00
2023,05,13,03,30,16.00
2023,05,13,03,31,16.10
2023,05,13,03,32,16.10
2023,05,13,03,33,16.10
2023,05,13,03,34,16.10
2023,05,13,03,35,16.10
2023,05,13,03,36,16.10
2023,05,13,03,37,16.10
2023,05,13,03,38,16.10
2023,05,13,03,39,16.10
2023,05,13,03,40,16.10
2023,05,13,03,41,16.10
2023,05,13,03,42,16.10
2023,05,13,03,43,16.10
2023,05,13,03,44,16.10
2023,05,13,03,45,16.10
2023,05,13,03,46,16.10
2023,05,13,03,47,16.10
2023,05,13,03,48,16.00
2023,05,13,03,49,16.00
2023,05,13,03,50,16.00
2023,05,13,03,51,16.00
2023,05,13,03,52,16.00
2023,05,13,03,53,16.00
2023,05,13,03,54,15.90
2023,05,13,03,55,15.90
2023,05,13,03,56,15.90
2023,05,13,03,57,15.90
2023,05,13,03,58,15.90
2023,05,13,03,59,15.90
2023,05,13,04,00,15.80
2023,05,13,04,01,15.80
2023,05,13,04,02,15.80
2023,05,13,04,03,15.80
2023,05,13,04,04,15.80
2023,05,13,04,05,15.80
2023,05,13,04,06,15.80
2023,05,13,04,07,15.70
2023,05,13,04,08,15.70
2023,05,13,04,09,15.70
2023,05,13,04,10,15.70
2023,05,13,04,11,15.70
2023,05,13,04,12,15.60
2023,05,13,04,13,15.60
2023,05,13,04,14,15.60
2023,05,13,04,15,15.60
2023,05,13,04,16,15.60
2023,05,13,04,17,15.50
2023,05,13,04,18,15.50
2023,05,13,04,19,15.50
2023,05,13,04,20,15.50
2023,05,13,04,21,15.40
2023,05,13,04,22,15.40
2023,05,13,04,23,15.40
2023,05,13,04,24,15.40
2023,05,13,04,25,15.30
2023,05,13,04,26,15.30
2023,05,13,04,27,15.30
2023,05,13,04,28,15.20
2023,05,13,04,29,15.20
2023,05,13,04,30,15.20
2023,05,13,04,31,15.20
2023,05,13,04,32,15.10
2023,05,13,04,33,15.10
2023,05,13,04,34,15.10
2023,05,13,04,35,15.10
2023,05,13,04,36,15.00
2023,05,13,04,37,15.00
2023,05,13,04,38,15.00
2023,05,13,04,39,15.00
2023,05,13,04,40,14.90
2023,05,13,04,41,14.90
2023,05,13,04,42,14.90
2023,05,13,04,43,14.90
2023,05,13,04,44,14.90
2023,05,13,04,45,14.90
2023,05,13,04,46,14.90
2023,05,13,04,47,14.90
2023,05,13,04,48,14.90
2023,05,13,04,49,14.90
2023,05,13,04,50,14.90
2023,05,13,04,51,15.00
2023,05,13,04,52,15.00
2023,05,13,04,53,15.00
2023,05,13,04,54,15.00
2023,05,13,04,55,15.10
2023,05,13,04,56,15.10
2023,05,13,04,57,15.10
2023,05,13,04,58,15.10
2023,05,13,04,59,15.10
2023,05,13,05,00,15.20
2023,05,13,05,01,15.20
2023,05,13,05,02,15.20
2023,05,13,05,03,15.20
2023,05,13,05,04,15.30
2023,05,13,05,05,15.30
2023,05,13,05,06,15.30
2023,05,13,05,07,15.30
2023,05,13,05,08,15.30
2023,05,13,05,09,15.40
2023,05,13,05,10,15.40
2023,05,13,05,11,15.40
2023,05,13,05,12,15.40
2023,05,13,05,13,15.50
2023,05,13,05,14,15.50
2023,05,13,05,15,15.60
2023,05,13,05,16,15.60
2023,05,13,05,17,15.60
2023,05,13,05,18,15.60
2023,05,13,05,19,15.70
2023,05,13,05,20,15.70
2023,05,13,05,21,15.70
2023,05,13,05,22,15.80
2023,05,13,05,23,15.80
2023,05,13,05,24,15.80
2023,05,13,05,25,15.80
2023,05,13,05,26,15.90
2023,05,13,05,27,15.90
2023,05,13,05,28,15.90
2023,05,13,05,29,15.90
2023,05,13,05,30,15.90
2023,05,13,05,31,15.90
2023,05,13,05,32,16.00
2023,05,13,05,33,16.00
2023,05,13,05,34,16.00
2023,05,13,05,35,16.00
2023,05,13,05,36,16.00
2023,05,13,05,37,16.00
2023,05,13,05,38,16.00
2023,05,13,05,39,16.00
2023,05,13,05,40,16.00
2023,05,13,05,41,15.90
2023,05,13,05,42,15.90
2023,05,13,05,43,15.90
2023,05,13,05,44,15.90
2023,05,13,05,45,15.90
2023,05,13,05,46,15.90
2023,05,13,05,47,15.90
2023,05,13,05,48,15.90
2023,05,13,05,49,15.90
2023,05,13,05,50,15.90
2023,05,13,05,51,15.90
2023,05,13,05,52,15.90
2023,05,13,05,53,16.00
2023,05,13,05,54,16.00
2023,05,13,05,55,16.10
2023,05,13,05,56,16.10
2023,05,13,05,57,16.10
2023,05,13,05,58,16.20
2023,05,13,05,59,16.20
2023,05,13,06,00,16.20
2023,05,13,06,01,16.30
2023,05,13,06,02,16.30
2023,05,13,06,03,16.30
2023,05,13,06,04,16.30
2023,05,13,06,05,16.30
2023,05,13,06,06,16.30
2023,05,13,06,07,16.30
2023,05,13,06,08,16.30
2023,05,13,06,09,16.30
2023,05,13,06,10,16.40
2023,05,13,06,11,16.40
2023,05,13,06,12,16.40
2023,05,13,06,13,16.50
2023,05,13,06,14,16.50
2023,05,13,06,15,16.60
2023,05,13,06,16,16.60
2023,05,13,06,17,16.60
2023,05,13,06,18,16.70
2023,05,13,06,19,16.70
2023,05,13,06,20,16.70
2023,05,13,06,21,16.70
2023,05,13,06,22,16.80
2023,05,13,06,23,16.80
2023,05,13,06,24,16.80
2023,05,13,06,25,16.80
2023,05,13,06,26,16.80
2023,05,13,06,27,16.80
2023,05,13,06,28,16.80
2023,05,13,06,29,16.90
2023,05,13,06,30,16.90
2023,05,13,06,31,16.90
2023,05,13,06,32,16.90
2023,05,13,06,33,16.90
2023,05,13,06,34,16.90
2023,05,13,06,35,16.90
2023,05,13,06,36,16.90
2023,05,13,06,37,17.00
2023,05,13,06,38,17.00
2023,05,13,06,39,17.00
2023,05,13,06,40,17.00
2023,05,13,06,41,17.10
2023,05,13,06,42,17.10
2023,05,13,06,43,17.10
2023,05,13,06,44,17.10
2023,05,13,06,45,17.10
2023,05,13,06,46,17.10
2023,05,13,06,47,17.10
2023,05,13,06,48,17.10
2023,05,13,06,49,17.10
2023,05,13,06,50,17.10
2023,05,13,06,51,17.10
2023,05,13,06,52,17.10
2023,05,13,06,53,17.10
2023,05,13,06,54,17.20
2023,05,13,06,55,17.20
2023,05,13,06,56,17.20
2023,05,13,06,57,17.20
2023,05,13,06,58,17.20
2023,05,13,06,59,17.20
2023,05,13,07,00,17.30
2023,05,13,07,01,17.30
2023,05,13,07,02,17.30
2023,05,13,07,03,17.30
2023,05,13,07,04,17.30
2023,05,13,07,05,17.30
2023,05,13,07,06,17.30
2023,05,13,07,07,17.40
2023,05,13,07,08,17.40
2023,05,13,07,09,17.40
2023,05,13,07,10,17.40
2023,05,13,07,11,17.40
2023,05,13,07,12,17.40
2023,05,13,07,13,17.40
2023,05,13,07,14,17.40
2023,05,13,07,15,17.40
2023,05,13,07,16,17.50
2023,05,13,07,17,17.50
2023,05,13,07,18,17.50
2023,05,13,07,19,17.60
2023,05,13,07,20,17.60
2023,05,13,07,21,17.60
2023,05,13,07,22,17.60
2023,05,13,07,23,17.60
2023,05,13,07,24,17.60
2023,05,13,07,25,17.70
2023,05,13,07,26,17.70
2023,05,13,07,27,17.70
2023,05,13,07,28,17.70
2023,05,13,07,29,17.80
2023,05,13,07,30,17.80
2023,05,13,07,31,17.80
2023,05,13,07,32,17.80
2023,05,13,07,33,17.80
2023,05,13,07,34,17.90
2023,05,13,07,35,17.90
2023,05,13,07,36,17.90
2023,05,13,07,37,17.90
2023,05,13,07,38,18.00
2023,05,13,07,39,17.90
2023,05,13,07,40,17.90
2023,05,13,07,41,17.90
2023,05,13,07,42,17.90
2023,05,13,07,43,17.90
2023,05,13,07,44,17.90
2023,05,13,07,45,17.90
2023,05,13,07,46,17.90
2023,05,13,07,47,17.80
2023,05,13,07,48,17.80
2023,05,13,07,49,17.80
2023,05,13,07,50,17.80
2023,05,13,07,51,17.70
2023,05,13,07,52,17.70
2023,05,13,07,53,17.70
2023,05,13,07,54,17.60
2023,05,13,07,55,17.60
2023,05,13,07,56,17.60
2023,05,13,07,57,17.60
2023,05,13,07,58,17.70
2023,05,13,07,59,17.70
2023,05,13,08,00,17.70
2023,05,13,08,01,17.70
2023,05,13,08,02,17.70
2023,05,13,08,03,17.80
2023,05,13,08,04,17.80
2023,05,13,08,05,17.80
2023,05,13,08,06,17.80
2023,05,13,08,07,17.80
2023,05,13,08,08,17.90
2023,05,13,08,09,17.90
2023,05,13,08,10,17.90
2023,05,13,08,11,18.00
2023,05,13,08,12,18.00
2023,05,13,08,13,18.10
2023,05,13,08,14,18.10
2023,05,13,08,15,18.10
2023,05,13,08,16,18.20
2023,05,13,08,17,18.20
2023,05,13,08,18,18.30
2023,05,13,08,19,18.30
2023,05,13,08,20,18.30
2023,05,13,08,21,18.30
2023,05,13,08,22,18.30
2023,05,13,08,23,18.40
2023,05,13,08,24,18.40
2023,05,13,08,25,18.40
2023,05,13,08,26,18.40
2023,05,13,08,27,18.40
2023,05,13,08,28,18.40
2023,05,13,08,29,18.40
2023,05,13,08,30,18.50
2023,05,13,08,31,18.50
2023,05,13,08,32,18.50
2023,05,13,08,33,18.50
2023,05,13,08,34,18.60
2023,05,13,08,35,18.60
2023,05,13,08,36,18.60
2023,05,13,08,37,18.60
2023,05,13,08,38,18.60
2023,05,13,08,39,18.60
2023,05,13,08,40,18.60
2023,05,13,08,41,18.70
2023,05,13,08,42,18.70
2023,05,13,08,43,18.70
2023,05,13,08,44,18.80
2023,05,13,08,45,18.80
2023,05,13,08,46,18.80
2023,05,13,08,47,18.80
2023,05,13,08,48,18.90
2023,05,13,08,49,18.90
2023,05,13,08,50,18.90
2023,05,13,08,51,18.90
2023,05,13,08,52,19.00
2023,05,13,08,53,19.00
2023,05,13,08,54,19.10
2023,05,13,08,55,19.10
2023,05,13,08,56,19.10
2023,05,13,08,57,19.10
2023,05,13,08,58,19.20
2023,05,13,08,59,19.20
2023,05,13,09,00,19.20
2023,05,13,09,01,19.30
2023,05,13,09,02,19.30
2023,05,13,09,03,19.30
2023,05,13,09,04,19.30
2023,05,13,09,05,19.30
2023,05,13,09,06,19.30
2023,05,13,09,07,19.30
2023,05,13,09,08,19.30
2023,05,13,09,09,19.40
2023,05,13,09,10,19.40
2023,05,13,09,11,19.40
2023,05,13,09,12,19.50
2023,05,13,09,13,19.50
2023,05,13,09,14,19.60
2023,05,13,09,15,19.60
2023,05,13,09,16,19.60
2023,05,13,09,17,19.60
2023,05,13,09,18,19.70
2023,05,13,09,19,19.70
2023,05,13,09,20,19.70
2023,05,13,09,21,19.70
2023,05,13,09,22,19.70
2023,05,13,09,23,19.60
2023,05,13,09,24,19.60
2023,05,13,09,25,19.60
2023,05,13,09,26,19.50
2023,05,13,09,27,19.50
2023,05,13,09,28,19.40
2023,05,13,09,29,19.40
2023,05,13,09,30,19.40
2023,05,13,09,31,19.40
2023,05,13,09,32,19.40
2023,05,13,09,33,19.40
2023,05,13,09,34,19.40
2023,05,13,09,35,19.40
2023,05,13,09,36,19.50
2023,05,13,09,37,19.50
2023,05,13,09,38,19.60
2023,05,13,09,39,19.60
2023,05,13,09,40,19.60
2023,05,13,09,41,19.60
2023,05,13,09,42,19.60
2023,05,13,09,43,19.60
2023,05,13,09,44,19.70
2023,05,13,09,45,19.70
2023,05,13,09,46,19.70
2023,05,13,09,47,19.70
2023,05,13,09,48,19.70
2023,05,13,09,49,19.70
2023,05,13,09,50,19.70
2023,05,13,09,51,19.80
2023,05,13,09,52,19.80
2023,05,13,09,53,19.80
2023,05,13,09,54,19.80
2023,05,13,09,55,19.80
2023,05,13,09,56,19.80
2023,05,13,09,57,19.80
2023,05,13,09,58,19.90
2023,05,13,09,59,19.90
2023,05,13,10,00,20.00
2023,05,13,10,01,20.00
2023,05,13,10,02,20.10
2023,05,13,10,03,20.10
2023,05,13,10,04,20.20
2023,05,13,10,05,20.30
2023,05,13,10,06,20.30
2023,05,13,10,07,20.40
2023,05,13,10,08,20.40
2023,05,13,10,09,20.40
2023,05,13,10,10,20.40
2023,05,13,10,11,20.40
2023,05,13,10,12,20.50
2023,05,13,10,13,20.50
2023,05,13,10,14,20.50
2023,05,13,10,15,20.50
2023,05,13,10,16,20.50
2023,05,13,10,17,20.50
2023,05,13,10,18,20.50
2023,05,13,10,19,20.60
2023,05,13,10,20,20.60
2023,05,13,10,21,20.60
2023,05,13,10,22,20.50
2023,05,13,10,23,20.60
2023,05,13,10,24,20.60
2023,05,13,10,25,20.60
2023,05,13,10,26,20.60
2023,05,13,10,27,20.60
2023,05,13,10,28,20.70
2023,05,13,10,29,20.70
2023,05,13,10,30,20.80
2023,05,13,10,31,20.80
2023,05,13,10,32,20.90
2023,05,13,10,33,20.90
2023,05,13,10,34,20.90
2023,05,13,10,35,20.90
2023,05,13,10,36,20.90
2023,05,13,10,37,20.90
2023,05,13,10,38,20.90
2023,05,13,10,39,21.00
2023,05,13,10,40,21.00
2023,05,13,10,41,21.10
2023,05,13,10,42,21.10
2023,05,13,10,43,21.20
2023,05,13,10,44,21.20
2023,05,13,10,45,21.20
2023,05,13,10,46,21.20
2023,05,13,10,47,21.20
2023,05,13,10,48,21.30
2023,05,13,10,49,21.30
2023,05,13,10,50,21.30
2023,05,13,10,51,21.30
2023,05,13,10,52,21.30
2023,05,13,10,53,21.30
2023,05,13,10,54,21.30
2023,05,13,10,55,21.30
2023,05,13,10,56,21.30
2023,05,13,10,57,21.30
2023,05,13,10,58,21.30
2023,05,13,10,59,21.30
2023,05,13,11,00,21.40
2023,05,13,11,01,21.40
2023,05,13,11,02,21.40
2023,05,13,11,03,21.40
2023,05,13,11,04,21.50
2023,05,13,11,05,21.50
2023,05,13,11,06,21.60
2023,05,13,11,07,21.60
2023,05,13,11,08,21.70
2023,05,13,11,09,21.80
2023,05,13,11,10,21.80
2023,05,13,11,11,21.90
2023,05,13,11,12,21.90
2023,05,13,11,13,22.00
2023,05,13,11,14,22.00
2023,05,13,11,15,22.10
2023,05,13,11,16,22.10
2023,05,13,11,17,22.20
2023,05,13,11,18,22.30
2023,05,13,11,19,22.30
2023,05,13,11,20,22.30
2023,05,13,11,21,22.40
2023,05,13,11,22,22.40
2023,05,13,11,23,22.50
2023,05,13,11,24,22.50
2023,05,13,11,25,22.40
2023,05,13,11,26,22.40
2023,05,13,11,27,22.30
2023,05,13,11,28,22.20
2023,05,13,11,29,22.20
2023,05,13,11,30,22.10
2023,05,13,11,31,22.00
2023,05,13,11,32,21.90
2023,05,13,11,33,21.90
2023,05,13,11,34,21.80
2023,05,13,11,35,21.80
2023,05,13,11,36,21.80
2023,05,13,11,37,21.80
2023,05,13,11,38,21.90
2023,05,13,11,39,21.90
2023,05,13,11,40,21.90
2023,05,13,11,41,22.00
2023,05,13,11,42,22.00
2023,05,13,11,43,22.00
2023,05,13,11,44,22.00
2023,05,13,11,45,22.00
2023,05,13,11,46,22.00
2023,05,13,11,47,22.00
2023,05,13,11,48,22.10
2023,05,13,11,49,22.10
2023,05,13,11,50,22.10
2023,05,13,11,51,22.10
2023,05,13,11,52,22.10
2023,05,13,11,53,22.10
2023,05,13,11,54,22.20
2023,05,13,11,55,22.20
2023,05,13,11,56,22.30
2023,05,13,11,57,22.40
2023,05,13,11,58,22.40
2023,05,13,11,59,22.40
2023,05,13,12,00,22.50
2023,05,13,12,01,22.50
2023,05,13,12,02,22.50
2023,05,13,12,03,22.50
2023,05,13,12,04,22.60
2023,05,13,12,05,22.60
2023,05,13,12,06,22.60
2023,05,13,12,07,22.60
2023,05,13,12,08,22.70
2023,05,13,12,09,22.70
2023,05,13,12,10,22.70
2023,05,13,12,11,22.70
2023,05,13,12,12,22.70
2023,05,13,12,13,22.80
2023,05,13,12,14,22.80
2023,05,13,12,15,22.90
2023,05,13,12,16,22.90
2023,05,13,12,17,23.00
2023,05,13,12,18,23.10
2023,05,13,12,19,23.20
2023,05,13,12,20,23.20
2023,05,13,12,21,23.20
2023,05,13,12,22,23.30
2023,05,13,12,23,23.30
2023,05,13,12,24,23.30
2023,05,13,12,25,23.30
2023,05,13,12,26,23.30
2023,05,13,12,27,23.30
2023,05,13,12,28,23.30
2023,05,13,12,29,23.30
2023,05,13,12,30,23.40
2023,05,13,12,31,23.50
2023,05,13,12,32,23.50
2023,05,13,12,33,23.50
2023,05,13,12,34,23.50
2023,05,13,12,35,23.50
2023,05,13,12,36,23.40
2023,05,13,12,37,23.50
2023,05,13,12,38,23.50
2023,05,13,12,39,23.60
2023,05,13,12,40,23.70
2023,05,13,12,41,23.70
2023,05,13,12,42,23.80
2023,05,13,12,43,23.90
2023,05,13,12,44,23.90
2023,05,13,12,45,24.00
2023,05,13,12,46,24.10
2023,05,13,12,47,24.10
2023,05,13,12,48,24.20
2023,05,13,12,49,24.30
2023,05,13,12,50,24.30
2023,05,13,12,51,24.40
2023,05,13,12,52,24.40
2023,05,13,12,53,24.40
2023,05,13,12,54,24.40
2023,05,13,12,55,24.30
2023,05,13,12,56,24.30
2023,05,13,12,57,24.20
2023,05,13,12,58,24.10
2023,05,13,12,59,23.90
2023,05,13,13,00,23.80
2023,05,13,13,01,23.70
2023,05,13,13,02,23.60
2023,05,13,13,03,23.50
2023,05,13,13,04,23.50
2023,05,13,13,05,23.40
2023,05,13,13,06,23.40
2023,05,13,13,07,23.30
2023,05,13,13,08,23.40
2023,05,13,13,09,23.40
2023,05,13,13,10,23.50
2023,05,13,13,11,23.60
2023,05,13,13,12,23.70
2023,05,13,13,13,23.80
2023,05,13,13,14,23.90
2023,05,13,13,15,24.00
2023,05,13,13,16,24.00
2023,05,13,13,17,24.10
2023,05,13,13,18,24.10
2023,05,13,13,19,24.10
2023,05,13,13,20,24.10
2023,05,13,13,21,24.10
2023,05,13,13,22,24.10
2023,05,13,13,23,24.10
2023,05,13,13,24,24.10
2023,05,13,13,25,24.00
2023,05,13,13,26,24.00
2023,05,13,13,27,24.00
2023,05,13,13,28,24.10
2023,05,13,13,29,24.10
2023,05,13,13,30,24.10
2023,05,13,13,31,24.20
2023,05,13,13,32,24.20
2023,05,13,13,33,24.20
2023,05,13,13,34,24.30
2023,05,13,13,35,24.30
2023,05,13,13,36,24.30
2023,05,13,13,37,24.30
2023,05,13,13,38,24.40
2023,05,13,13,39,24.40
2023,05,13,13,40,24.50
2023,05,13,13,41,24.50
2023,05,13,13,42,24.60
2023,05,13,13,43,24.60
2023,05,13,13,44,24.70
2023,05,13,13,45,24.70
2023,05,13,13,46,24.70
2023,05,13,13,47,24.70
2023,05,13,13,48,24.70
2023,05,13,13,49,24.70
2023,05,13,13,50,24.70
2023,05,13,13,51,24.60
2023,05,13,13,52,24.60
2023,05,13,13,53,24.60
2023,05,13,13,54,24.60
2023,05,13,13,55,24.60
2023,05,13,13,56,24.60
2023,05,13,13,57,24.60
2023,05,13,13,58,24.60
2023,05,13,13,59,24.70
2023,05,13,14,00,24.70
2023,05,13,14,01,24.80
2023,05,13,14,02,24.90
2023,05,13,14,03,24.90
2023,05,13,14,04,24.90
2023,05,13,14,05,24.90
2023,05,13,14,06,24.90
2023,05,13,14,07,24.90
2023,05,13,14,08,24.90
2023,05,13,14,09,24.90
2023,05,13,14,10,24.90
2023,05,13,14,11,24.90
2023,05,13,14,12,24.90
2023,05,13,14,13,24.90
2023,05,13,14,14,24.80
2023,05,13,14,15,24.80
2023,05,13,14,16,24.80
2023,05,13,14,17,24.90
2023,05,13,14,18,24.90
2023,05,13,14,19,24.90
2023,05,13,14,20,24.90
2023,05,13,14,21,24.90
2023,05,13,14,22,24.90
2023,05,13,14,23,24.90
2023,05,13,14,24,24.90
2023,05,13,14,25,24.90
2023,05,13,14,26,25.00
2023,05,13,14,27,25.00
2023,05,13,14,28,25.10
2023,05,13,14,29,25.10
2023,05,13,14,30,25.10
2023,05,13,14,31,25.20
2023,05,13,14,32,25.20
2023,05,13,14,33,25.20
2023,05,13,14,34,25.20
2023,05,13,14,35,25.20
2023,05,13,14,36,25.20
2023,05,13,14,37,25.20
2023,05,13,14,38,25.20
2023,05,13,14,39,25.20
2023,05,13,14,40,25.20
2023,05,13,14,41,25.20
2023,05,13,14,42,25.30
2023,05,13,14,43,25.30
2023,05,13,14,44,25.30
2023,05,13,14,45,25.30
2023,05,13,14,46,25.30
2023,05,13,14,47,25.30
2023,05,13,14,48,25.30
2023,05,13,14,49,25.30
2023,05,13,14,50,25.30
2023,05,13,14,51,25.30
2023,05,13,14,52,25.30
2023,05,13,14,53,25.30
2023,05,13,14,54,25.30
2023,05,13,14,55,25.30
2023,05,13,14,56,25.40
2023,05,13,14,57,25.50
2023,05,13,14,58,25.50
2023,05,13,14,59,25.60
2023,05,13,15,00,25.70
2023,05,13,15,01,25.70
2023,05,13,15,02,25.70
2023,05,13,15,03,25.70
2023,05,13,15,04,25.70
2023,05,13,15,05,25.70
2023,05,13,15,06,25.70
2023,05,13,15,07,25.70
2023,05,13,15,08,25.70
2023,05,13,15,09,25.60
2023,05,13,15,10,25.60
2023,05,13,15,11,25.50
2023,05,13,15,12,25.40
2023,05,13,15,13,25.40
2023,05,13,15,14,25.30
2023,05,13,15,15,25.30
2023,05,13,15,16,25.30
2023,05,13,15,17,25.30
2023,05,13,15,18,25.30
2023,05,13,15,19,25.30
2023,05,13,15,20,25.30
2023,05,13,15,21,25.30
2023,05,13,15,22,25.30
2023,05,13,15,23,25.30
2023,05,13,15,24,25.20
2023,05,13,15,25,25.20
2023,05,13,15,26,25.10
2023,05,13,15,27,25.10
2023,05,13,15,28,25.10
2023,05,13,15,29,25.00
2023,05,13,15,30,25.00
2023,05,13,15,31,24.90
2023,05,13,15,32,24.90
2023,05,13,15,33,24.90
2023,05,13,15,34,24.90
2023,05,13,15,35,24.80
2023,05,13,15,36,24.80
2023,05,13,15,37,24.80
2023,05,13,15,38,24.80
2023,05,13,15,39,24.90
2023,05,13,15,40,24.90
2023,05,13,15,41,24.90
2023,05,13,15,42,24.90
2023,05,13,15,43,24.90
2023,05,13,15,44,24.90
2023,05,13,15,45,25.00
2023,05,13,15,46,25.00
2023,05,13,15,47,25.10
2023,05,13,15,48,25.10
2023,05,13,15,49,25.20
2023,05,13,15,50,25.10
2023,05,13,15,51,25.10
2023,05,13,15,52,25.20
2023,05,13,15,53,25.20
2023,05,13,15,54,25.20
2023,05,13,15,55,25.20
2023,05,13,15,56,25.20
2023,05,13,15,57,25.20
2023,05,13,15,58,25.20
2023,05,13,15,59,25.30
2023,05,13,16,00,25.30
2023,05,13,16,01,25.30
2023,05,13,16,02,25.30
2023,05,13,16,03,25.30
2023,05,13,16,04,25.30
2023,05,13,16,05,25.30
2023,05,13,16,06,25.40
2023,05,13,16,07,25.40
2023,05,13,16,08,25.40
2023,05,13,16,09,25.40
2023,05,13,16,10,25.40
2023,05,13,16,11,25.40
2023,05,13,16,12,25.40
2023,05,13,16,13,25.40
2023,05,13,16,14,25.40
2023,05,13,16,15,25.50
2023,05,13,16,16,25.50
2023,05,13,16,17,25.60
2023,05,13,16,18,25.60
2023,05,13,16,19,25.60
2023,05,13,16,20,25.70
2023,05,13,16,21,25.70
2023,05,13,16,22,25.70
2023,05,13,16,23,25.70
2023,05,13,16,24,25.70
2023,05,13,16,25,25.70
2023,05,13,16,26,25.70
2023,05,13,16,27,25.60
2023,05,13,16,28,25.70
2023,05,13,16,29,25.70
2023,05,13,16,30,25.70
2023,05,13,16,31,25.70
2023,05,13,16,32,25.70
2023,05,13,16,33,25.70
2023,05,13,16,34,25.70
2023,05,13,16,35,25.70
2023,05,13,16,36,25.70
2023,05,13,16,37,25.70
2023,05,13,16,38,25.70
2023,05,13,16,39,25.70
2023,05,13,16,40,25.70
2023,05,13,16,41,25.70
2023,05,13,16,42,25.70
2023,05,13,16,43,25.70
2023,05,13,16,44,25.70
2023,05,13,16,45,25.70
2023,05,13,16,46,25.70
2023,05,13,16,47,25.80
2023,05,13,16,48,25.80
2023,05,13,16,49,25.80
2023,05,13,16,50,25.80
2023,05,13,16,51,25.80
2023,05,13,16,52,25.80
2023,05,13,16,53,25.80
2023,05,13,16,54,25.80
2023,05,13,16,55,25.70
2023,05,13,16,56,25.70
2023,05,13,16,57,25.70
2023,05,13,16,58,25.70
2023,05,13,16,59,25.70
2023,05,13,17,00,25.60
2023,05,13,17,01,25.60
2023,05,13,17,02,25.60
2023,05,13,17,03,25.60
2023,05,13,17,04,25.60
2023,05,13,17,05,25.60
2023,05,13,17,06,25.60
2023,05,13,17,07,25.60
2023,05,13,17,08,25.60
2023,05,13,17,09,25.60
2023,05,13,17,10,25.70
2023,05,13,17,11,25.70
2023,05,13,17,12,25.60
2023,05,13,17,13,25.60
2023,05,13,17,14,25.60
2023,05,13,17,15,25.50
2023,05,13,17,16,25.50
2023,05,13,17,17,25.50
2023,05,13,17,18,25.50
2023,05,13,17,19,25.40